Weather History for Wenatchee, WA

Change the Weather History Date:

Friday, June 13, 2014

  Actual Average Record
Temperature  
Mean Temperature 54 °F 59 °F  
Max Temperature 64 °F 71 °F 95 °F (1974)
Min Temperature 44 °F 46 °F 39 °F (2005)
Degree Days  
Heating Degree Days 11 7  
Month to date heating degree days 73 99  
Since 1 June heating degree days 73 99  
Since 1 July heating degree days 7120 7050  
Cooling Degree Days 0 0  
Month to date cooling degree days 0 0  
Year to date cooling degree days 0 5  
Since 1 June cooling degree days 0 0  
Growing Degree Days 8 (Base 50)    
Moisture  
Dew Point 44 °F    
Average Humidity 61    
Maximum Humidity 77    
Minimum Humidity 51    
Precipitation  
Precipitation 0.00 in 0.05 in 0.57 in (2012)
Month to date precipitation 0.25 0.76  
Year to date precipitation 7.33 8.79  
Snow  
Snow 0.00 in 0.00 in - ()
Month to date snowfall 0.0 0.0  
Since 1 June snowfall 0.0 0.0  
Since 1 July snowfall 31.0 54.1  
Snow Depth 0.00 in    
Sea Level Pressure  
Sea Level Pressure 29.83 in    
Wind  
Wind Speed 13 mph (WNW)    
Max Wind Speed 20 mph    
Max Gust Speed -    
Visibility 10 miles    
Events Rain    
T = Trace of Precipitation, MM = Missing Value Source: NWS Daily Summary

Daily Weather History Graph

Daily Weather History Graph

Search for Another Location

Airport:

Trip Planner

Search our weather history database for the weather conditions in past years. The results will help you decide how hot, cold, wet, or windy it might be!

Date:

Astronomy

Jun. 13, 2014 Rise Set
Actual Time 5:03 AM PDT 8:58 PM PDT
Civil Twilight 4:23 AM PDT 9:38 PM PDT
Nautical Twilight 3:28 AM PDT 10:34 PM PDT
Astronomical Twilight 2:03 AM PDT 11:59 PM PDT
Moon 9:27 PM PDT (6/13) 5:54 AM PDT (6/13)
Length of Visible Light 17h 15m
Length of Day
15h 55m
Waxing Gibbous, 99% of the Moon is Illuminated
Jun 13
Waxing Gibbous
Jun 19
Last Quarter
Jun 27
New
Jul 5
First Quarter
Jul 12
Full

Hourly Weather History & Observations

Time (PDT) Temp. Dew Point Humidity Pressure Visibility Wind Dir Wind Speed Gust Speed Precip Events Conditions
12:55 AM 59.0 °F 42.1 °F 53% 29.71 in 10.0 mi NW 16.1 mph - 0.00 in Rain Light Rain
1:55 AM 59.0 °F 41.0 °F 51% 29.72 in 10.0 mi WNW 19.6 mph - 0.05 in   Overcast
2:55 AM 57.9 °F 39.9 °F 51% 29.73 in 10.0 mi WNW 13.8 mph - N/A   Scattered Clouds
3:55 AM 55.9 °F 39.9 °F 55% 29.74 in 10.0 mi NW 15.0 mph - N/A   Clear
4:55 AM 55.9 °F 39.9 °F 55% 29.76 in 10.0 mi WNW 10.4 mph - N/A   Overcast
5:55 AM 55.9 °F 39.9 °F 55% 29.76 in 10.0 mi WNW 15.0 mph - N/A   Scattered Clouds
6:55 AM 54.0 °F 44.1 °F 69% 29.78 in 10.0 mi NW 9.2 mph - 0.01 in Rain Light Rain
8:55 AM 55.9 °F 44.1 °F 64% 29.81 in 10.0 mi NW 11.5 mph - 0.01 in Rain Light Rain
10:55 AM 57.0 °F 46.0 °F 67% 29.83 in 10.0 mi SSE 3.5 mph - 0.01 in Rain Light Rain
11:55 AM 59.0 °F 44.1 °F 58% 29.84 in 10.0 mi North 4.6 mph - 0.00 in Rain Light Rain
12:55 PM 57.9 °F 48.0 °F 70% 29.86 in 10.0 mi WNW 13.8 mph - 0.02 in Rain Light Rain
4:55 PM 57.0 °F 50.0 °F 77% 29.89 in 10.0 mi West 5.8 mph - 0.02 in Rain Light Rain
5:55 PM 59.0 °F 50.0 °F 72% 29.88 in 10.0 mi WNW 10.4 mph - 0.00 in Rain Light Rain
6:55 PM 60.1 °F 48.9 °F 67% 29.88 in 10.0 mi WNW 9.2 mph - 0.00 in   Overcast
7:55 PM 61.0 °F 48.0 °F 62% 29.88 in 10.0 mi WNW 13.8 mph - N/A   Overcast
8:55 PM 61.0 °F 45.0 °F 56% 29.90 in 10.0 mi WNW 13.8 mph - N/A   Overcast
9:55 PM 59.0 °F 45.0 °F 60% 29.92 in 10.0 mi West 5.8 mph - N/A   Overcast
10:55 PM 57.9 °F 42.1 °F 56% 29.94 in 10.0 mi NNW 10.4 mph - N/A   Clear
11:55 PM 57.0 °F 42.1 °F 57% 29.94 in 10.0 mi WNW 10.4 mph - N/A   Clear